Meteopurmerend
purmerend
Purmerend - Baaienwijk



My webcam  My webcam


waarschuwing voor Onweer Meer informatie blitzortung!


Regen radar Meer informatie rain snow radar


Bezoek onze andere website:

CandyAppleRed WebdesignWebdesign Purmerend Candy Apple Red

MeteopurmerendBlog

Template documentation
and downloads



Onweer van: 26-07-2021 15:00 tot: 21:00 waarschuwing voor: Onweer niveau: Geel info button
Enkele onweersbuien, lokaal met hagel en veel neerslag in korte tijd.Kans op blikseminslag, hagel en veel neerslag in korte tijd.Verkeer en buitenactiviteiten kunnen hinder ondervinden.Mijd open water en open gebied, schuil niet onder bomen.Volg weerberichten en waarschuwingen.

15 daagse weersverwachting Porsgrunn (NO)

  • Overzicht
  • Per uur
  • 15 dagen
  • Extra
  • Vergelijk
  • Kaarten
  • Dagkaart
  • Meer »
  • Info
  • Statistieken
  • Directe link
    Temp 6h Neerslag Wind  
 04:58     21:59    Daglengte: 17:01 Vandaag
20:00
21°
1.6 mm
4
warningclass
 05:01     21:57    Daglengte: 16:56 Morgen
02:00
19°
9.2 mm
3
warningclass
08:00
20°
8.7 mm
4
warningclass
14:00
20°
26.0 mm
4
20:00
19°
26.6 mm
3
warningclass
 05:03     21:55    Daglengte: 16:52 Woensdag 28 Jul
02:00
18°
10.5 mm
1
08:00
18°
11.2 mm
1
14:00
20°
23.1 mm
4
20:00
19°
32.0 mm
3
 05:05     21:52    Daglengte: 16:47 Donderdag 29 Jul
02:00
16°
21.6 mm
2
08:00
17°
30.4 mm
2
14:00
19°
42.3 mm
3
Locatie info
Region: Telemark
Latitude: 59.1444°N
Longitude: 9.6589°E
9 masl
Postcode: 3915
Temp/Neerslag /Baro Onweer/Dauwpunt
    Temp Baro 1h Neerslag Dauwpunt Wind UV Bewolking  
 04:58     21:59    Daglengte: 17:01 Vandaag
17:00
24°
1013.3 hPa
48%
14.7°
4
Windvlaag: 2.7 m/s
79%
18:00
23°
1013.2 hPa
80%
14.8°
4
Windvlaag: 2.7 m/s
73%
19:00
22°
1013.1 hPa
81%
15.5°
3
Windvlaag: 2.2 m/s
81%
20:00
21°
1012.8 hPa 1.6 mm
82%
15.5°
4
Windvlaag: 1.7 m/s
76% warningclass
21:00
20°
1012.6 hPa 1.6 mm
82%
16.2°
3
Windvlaag: 1.9 m/s
84% warningclass
22:00
20°
1012.9 hPa 2.5 mm
82%
18.3°
2
Windvlaag: -0.1 m/s
84% warningclass
23:00
19°
1012.9 hPa
82%
18.6°
2
Windvlaag: -1.5 m/s
86% warningclass
 05:01     21:57    Daglengte: 16:56 Morgen
00:00
19°
1012.7 hPa 2.3 mm
82%
18.5°
3
Windvlaag: -1.6 m/s
77% warningclass
01:00
19°
1012.2 hPa 2.8 mm
82%
18.6°
2
Windvlaag: -1.8 m/s
74% warningclass
02:00
19°
1012.1 hPa
82%
18.8°
3
Windvlaag: -2.1 m/s
86% warningclass
03:00
19°
1011.6 hPa
82%
18.8°
3
Windvlaag: -3 m/s
82%
04:00
19°
1011.5 hPa 2.5 mm
82%
18.6°
3
Windvlaag: -2.3 m/s
84% warningclass
05:00
19°
1011.0 hPa 2.8 mm
82%
18.5°
2
Windvlaag: -2 m/s
86% warningclass
06:00
19°
1010.8 hPa 3.4 mm
82%
18.5°
3
Windvlaag: -0.9 m/s
86% warningclass
07:00
19°
1010.6 hPa
81%
18.6°
3
Windvlaag: -1.3 m/s
72% warningclass
08:00
20°
1010.6 hPa
80%
18.9°
4
Windvlaag: 1.3 m/s
74% warningclass
09:00
20°
1010.5 hPa 3.2 mm
82%
18.4°
3
Windvlaag: 2.7 m/s
86% warningclass
10:00
20°
1010.3 hPa 4.4 mm
82%
17.7°
3
Windvlaag: -0.3 m/s
86% warningclass
11:00
19°
1010.0 hPa 5.7 mm
82%
17.7°
4
Windvlaag: -2.3 m/s
86% warningclass
12:00
20°
1009.7 hPa 3.9 mm
82%
18.1°
3
Windvlaag: -3.4 m/s
86% warningclass
13:00
20°
1009.4 hPa 4.8 mm
82%
15.8°
3
Windvlaag: -3.7 m/s
86% warningclass
14:00
20°
1008.9 hPa 4.1 mm
82%
17.7°
4
Windvlaag: -4.6 m/s
86%
15:00
20°
1008.7 hPa 4.9 mm
82%
18.4°
3
Windvlaag: -4.7 m/s
75% warningclass
16:00
20°
1008.3 hPa 5.0 mm
82%
18.3°
3
Windvlaag: -1.8 m/s
83% warningclass
17:00
20°
1007.8 hPa 3.9 mm
82%
18.4°
3
Windvlaag: -1.7 m/s
84% warningclass
18:00
20°
1007.4 hPa 4.4 mm
82%
18.4°
3
Windvlaag: -1.8 m/s
83% warningclass
19:00
20°
1007.0 hPa 4.1 mm
82%
18.4°
3
Windvlaag: -0.9 m/s
84% warningclass
20:00
19°
1006.7 hPa 4.3 mm
82%
18.2°
3
Windvlaag: -0.8 m/s
84% warningclass
21:00
19°
1006.8 hPa 3.8 mm
82%
18.4°
2
Windvlaag: 2.3 m/s
85% warningclass
22:00
19°
1007.0 hPa 3.7 mm
82%
18.4°
1
Windvlaag: 4.4 m/s
78% warningclass
23:00
18°
1006.9 hPa
82%
17.9°
1
Windvlaag: 4.2 m/s
86%
 05:03     21:55    Daglengte: 16:52 Woensdag 28 Jul
00:00
18°
1006.9 hPa 3.1 mm
82%
17.9°
1
Windvlaag: 1.6 m/s
86%
01:00
18°
1006.5 hPa
82%
17.8°
1
Windvlaag: 1.3 m/s
78%
02:00
18°
1006.2 hPa
81%
17.7°
1
Windvlaag: -0.9 m/s
79%
03:00
17°
1005.6 hPa
80%
17.3°
1
Windvlaag: -1.9 m/s
80%
04:00
17°
1005.3 hPa
81%
17.3°
1
Windvlaag: -1.9 m/s
64%
05:00
17°
1004.9 hPa
82%
17.0°
1
Windvlaag: -1.8 m/s
65%
06:00
17°
1004.8 hPa 3.5 mm
82%
17.0°
1
Windvlaag: -0.6 m/s
78%
07:00
18°
1004.6 hPa 4.0 mm
82%
17.5°
1
Windvlaag: 2.8 m/s
86%
08:00
18°
1004.6 hPa 3.8 mm
82%
17.6°
1
Windvlaag: 4.9 m/s
80%
09:00
18°
1004.7 hPa 3.5 mm
82%
17.9°
1
Windvlaag: 5.5 m/s
69%
10:00
19°
1004.7 hPa 3.6 mm
82%
17.6°
2
Windvlaag: 5.3 m/s
65%
11:00
18°
1004.0 hPa 3.5 mm
100%
16.8°
2
Windvlaag: 5.4 m/s
87%
12:00
19°
1003.8 hPa 3.6 mm
100%
15.4°
3
Windvlaag: 5.1 m/s
94%
13:00
20°
1003.6 hPa 5.7 mm
100%
13.8°
4
Windvlaag: 6.6 m/s
99%
14:00
20°
1003.4 hPa 3.3 mm
100%
13.5°
4
Windvlaag: 7.2 m/s
94%
15:00
20°
1003.2 hPa 3.3 mm
100%
13.2°
4
Windvlaag: 7.3 m/s
81%
16:00
20°
1002.9 hPa 5.6 mm
93%
13.3°
4
Windvlaag: 7.2 m/s
69%
17:00
20°
1002.5 hPa 5.7 mm
85%
13.9°
4
Windvlaag: 6.8 m/s
68%
18:00
20°
1002.1 hPa 6.0 mm
37%
13.7°
4
Windvlaag: 6.6 m/s
59%
19:00
19°
1001.8 hPa 5.8 mm
37%
13.8°
4
Windvlaag: 5.8 m/s
76%
20:00
19°
1001.4 hPa 5.5 mm
36%
13.8°
3
Windvlaag: 5.3 m/s
39%
21:00
18°
1001.2 hPa 5.4 mm
29%
13.9°
3
Windvlaag: 4.1 m/s
40%
22:00
18°
1001.0 hPa
29%
15.0°
2
Windvlaag: 3.9 m/s
36%
23:00
17°
1000.6 hPa
28%
15.1°
2
Windvlaag: 3.3 m/s
47%
 05:05     21:52    Daglengte: 16:47 Donderdag 29 Jul
00:00
17°
1000.1 hPa 5.4 mm
29%
15.2°
2
Windvlaag: 2.9 m/s
70%
01:00
16°
999.8 hPa 5.4 mm
29%
15.3°
2
Windvlaag: 2 m/s
80%
02:00
16°
999.4 hPa 5.4 mm
29%
15.4°
2
Windvlaag: 0.3 m/s
82%
03:00
16°
998.8 hPa 6.0 mm
29%
15.5°
2
Windvlaag: 0.6 m/s
97%
04:00
16°
998.5 hPa 5.8 mm
35%
15.1°
2
Windvlaag: 1.6 m/s
95%
05:00
16°
998.2 hPa 5.9 mm
80%
15.3°
2
Windvlaag: 1.6 m/s
96%
06:00
16°
997.7 hPa 5.7 mm
90%
15.0°
2
Windvlaag: 1 m/s
99%
07:00
16°
997.3 hPa 3.5 mm
95%
14.9°
2
Windvlaag: 3.1 m/s
90%
08:00
17°
997.1 hPa 3.6 mm
97%
15.7°
2
Windvlaag: 4.9 m/s
97%
09:00
17°
994.7 hPa 6.5 mm
99%
15.7°
1
Windvlaag: 7.3 m/s
88% warningclass
10:00
17°
994.5 hPa 6.7 mm
100%
14.5°
2
Windvlaag: 8.6 m/s
97% warningclass
11:00
17°
994.3 hPa 7.0 mm
100%
15.6°
2
Windvlaag: 6.3 m/s
100% warningclass
12:00
18°
993.8 hPa 7.3 mm
100%
16.1°
3
Windvlaag: 8.5 m/s
100% warningclass
13:00
19°
993.4 hPa 7.4 mm
100%
15.0°
4
Windvlaag: 9.2 m/s
99%
14:00
19°
993.1 hPa
98%
15.7°
3
Windvlaag: 9.5 m/s
86%
Temp/Neerslag /Baro Onweer/Dauwpunt
    Temp Baro Neerslag Dauwpunt Wind Bewolking  
 04:58     21:59    Daglengte: 17:01 Vandaag
17:00
24°
1013.3 hPa   14.7°
4
79%
20:00
21°
1012.8 hPa 1.6 mm 15.5°
4
76% warningclass
23:00
19°
1012.9 hPa 4.1 mm 18.6°
2
86% warningclass
 05:01     21:57    Daglengte: 16:56 Morgen
02:00
19°
1012.1 hPa 5.1 mm 18.8°
3
86% warningclass
05:00
19°
1011.0 hPa 5.3 mm 18.5°
2
86% warningclass
08:00
20°
1010.6 hPa 3.4 mm 18.9°
4
74% warningclass
11:00
19°
1010.0 hPa 13.3 mm 17.7°
4
86% warningclass
14:00
20°
1008.9 hPa 12.7 mm 17.7°
4
86%
17:00
20°
1007.8 hPa 13.7 mm 18.4°
3
84% warningclass
20:00
19°
1006.7 hPa 12.9 mm 18.2°
3
84% warningclass
23:00
18°
1006.9 hPa 7.4 mm 17.9°
1
86%
 05:03     21:55    Daglengte: 16:52 Woensdag 28 Jul
02:00
18°
1006.2 hPa 3.1 mm 17.7°
1
79%
05:00
17°
1004.9 hPa   17.0°
1
65%
08:00
18°
1004.6 hPa 11.2 mm 17.6°
1
80%
11:00
18°
1004.0 hPa 10.6 mm 16.8°
2
87%
14:00
20°
1003.4 hPa 12.5 mm 13.5°
4
94%
17:00
20°
1002.5 hPa 14.6 mm 13.9°
4
68%
20:00
19°
1001.4 hPa 17.4 mm 13.8°
3
39%
23:00
17°
1000.6 hPa 5.4 mm 15.1°
2
47%
 05:05     21:52    Daglengte: 16:47 Donderdag 29 Jul
02:00
16°
999.4 hPa 16.2 mm 15.4°
2
82%
05:00
16°
998.2 hPa 17.7 mm 15.3°
2
96%
08:00
17°
997.1 hPa 12.8 mm 15.7°
2
97%
11:00
17°
994.3 hPa 20.2 mm 15.6°
2
100% warningclass
14:00
19°
993.1 hPa 22.1 mm 15.7°
3
86%
17:00
15°
994.9 hPa 48.4 mm 14.0°
1
1%
20:00
15°
993.8 hPa 49.2 mm 13.6°
2
1%
23:00
13°
992.7 hPa 49.2 mm 12.5°
1
1%
 05:07     21:50    Daglengte: 16:43 Vrijdag 30 Jul
02:00
12°
991.9 hPa 49.2 mm 11.3°
2
1%
05:00
11°
991.3 hPa 49.2 mm 11.0°
2
1%
08:00
15°
991.6 hPa 49.2 mm 13.0°
2
1%
11:00
22°
992.4 hPa 49.2 mm 11.3°
1
1%
14:00
21°
993.1 hPa 49.2 mm 13.7°
1
1%
17:00
22°
994.5 hPa 49.3 mm 12.3°
2
1%
20:00
20°
994.7 hPa 49.3 mm 13.9°
2
0%
23:00
16°
995.7 hPa 49.3 mm 13.4°
1
0%
 05:09     21:48    Daglengte: 16:39 Zaterdag 31 Jul
02:00
15°
996.2 hPa 49.3 mm 12.5°
2
0%
05:00
14°
996.4 hPa 49.3 mm 12.9°
2
1%
08:00
16°
996.6 hPa 49.3 mm 9.9°
4
1%
11:00
19°
997.1 hPa 49.3 mm 10.3°
4
1%
14:00
22°
996.8 hPa 49.3 mm 10.2°
1
1%
17:00
19°
996.9 hPa 49.4 mm 13.1°
2
1%
20:00
18°
996.5 hPa 50.0 mm 15.4°
2
1%
23:00
14°
996.2 hPa 50.3 mm 13.3°
1
1%
 05:11     21:45    Daglengte: 16:34 Zondag 01 Aug
02:00
13°
995.4 hPa 50.3 mm 12.7°
1
1%
05:00
13°
995.1 hPa 50.5 mm 12.1°
1
1%
08:00
15°
994.9 hPa 50.8 mm 13.6°
2
1%
11:00
17°
995.1 hPa 51.6 mm 14.3°
3
1%
14:00
19°
994.9 hPa 52.1 mm 10.4°
3
1%
17:00
18°
995.2 hPa 52.7 mm 10.7°
2
1%
20:00
16°
995.7 hPa 53.5 mm 13.5°
1
1%
23:00
14°
996.2 hPa 55.9 mm 13.0°
2
1%
 05:14     21:43    Daglengte: 16:29 Maandag 02 Aug
02:00
13°
996.3 hPa 56.0 mm 12.3°
1
1%
05:00
13°
996.9 hPa 56.6 mm 11.8°
1
1%
08:00
14°
997.5 hPa 56.8 mm 12.5°
1
1%
11:00
16°
998.3 hPa 58.2 mm 12.6°
1
1%
14:00
18°
998.6 hPa 117.6 mm 12.1°
2
1%
20:00
16°
998.1 hPa 121.6 mm 12.1°
1
0%
 05:16     21:41    Daglengte: 16:25 Dinsdag 03 Aug
02:00
Voelt als: 7.4°
1000.9 hPa 122.8 mm 7.7°
4
0%
08:00
12°
1002.4 hPa 122.8 mm 6.9°
2
0%
14:00
20°
1002.1 hPa 122.8 mm 3.8°
3
0%
20:00
18°
1002.8 hPa 122.8 mm 6.4°
5
1%
 05:18     21:38    Daglengte: 16:20 Woensdag 04 Aug
02:00
10°
Voelt als: 9.0°
1004.8 hPa 122.8 mm 6.1°
2
0%
08:00
13°
1004.0 hPa 122.8 mm 5.7°
1
1%
14:00
12°
1000.2 hPa 127.0 mm 9.9°
3
1%
20:00
12°
998.0 hPa 137.7 mm 11.6°
1
1%
 05:20     21:36    Daglengte: 16:16 Donderdag 05 Aug
02:00
11°
996.1 hPa 138.4 mm 10.9°
1
1%
08:00
13°
993.8 hPa 138.4 mm 11.4°
2
1%
14:00
19°
1006.6 hPa 1.3 mm 11.6°
2
71%
20:00
17°
1005.9 hPa 1.4 mm 12.4°
2
73%
 05:23     21:33    Daglengte: 16:10 Vrijdag 06 Aug
02:00
14°
1006.5 hPa 0.6 mm 11.5°
1
64%
08:00
15°
1005.9 hPa 1.0 mm 12.0°
2
69%
14:00
19°
1005.2 hPa 2.2 mm 12.8°
2
71%
20:00
18°
1003.8 hPa 1.9 mm 13.3°
1
74%
 05:25     21:31    Daglengte: 16:06 Zaterdag 07 Aug
02:00
14°
1004.0 hPa 2.2 mm 12.1°
1
69%
08:00
15°
1004.0 hPa 1.4 mm 12.4°
1
67%
14:00
19°
1003.8 hPa 0.7 mm 12.6°
2
65%
20:00
18°
1003.1 hPa 1.3 mm 13.4°
1
63%
 05:27     21:28    Daglengte: 16:01 Zondag 08 Aug
02:00
14°
1003.7 hPa 1.2 mm 12.3°
1
70%
08:00
15°
1003.6 hPa 2.0 mm 12.5°
2
75%
14:00
19°
1003.9 hPa 2.1 mm 13.5°
1
73%
20:00
18°
1003.7 hPa 1.6 mm 13.7°
1
73%
 05:29     21:25    Daglengte: 15:56 Maandag 09 Aug
02:00
14°
1004.9 hPa 1.2 mm 12.3°
1
65%
08:00
15°
1005.4 hPa 0.8 mm 12.2°
1
70%
14:00
19°
1006.1 hPa 0.8 mm 12.3°
1
69%
20:00
18°
1006.0 hPa 1.2 mm 13.3°
1
68%
 05:32     21:23    Daglengte: 15:51 Dinsdag 10 Aug
02:00
14°
1007.2 hPa 0.6 mm 11.8°
1
63%
08:00
15°
1007.5 hPa 0.2 mm 12.0°
1
61%
14:00
20°
1008.1 hPa 0.4 mm 12.2°
1
62%
  CAPE Lifted Index Hail Supercell Tornado SRH 3km CL BTM PRES CL TOP PRES Swiss DWD icon SMHI TS
 04:58     21:59    Daglengte: 17:01 Vandaag
17:00 594 J/kg -2.3 K 0 % 0 % 0 % 0 m²/s² 0 0 -2 80
18:00 454 J/kg -1.6 K 0 % 0 % 0 % 0 m²/s² 0 0 -1.39 3
19:00 710 J/kg -2.5 K 0 % 0 % 0 % 0 m²/s² 0 0 -2.41 3
20:00 615 J/kg -2.6 K 0 % 0 % 0 % 0 m²/s² 0 0 -2.15 95
21:00 0 J/kg 0.8 K 0 % 0 % 0 % 0 m²/s² 0 0 1.43 95
22:00 0 J/kg 0.8 K 0 % 0 % 0 % 0 m²/s² 0 0 1.07 95
23:00 138 J/kg -1.4 K 0 % 0 % 0 % 0 m²/s² 0 0 -1.4 95
 05:01     21:57    Daglengte: 16:56 Morgen
00:00 134 J/kg -1.0 K 0 % 0 % 0 % 0 m²/s² 0 0 -0.79 95
01:00 29 J/kg -2.1 K 0 % 0 % 0 % 0 m²/s² 0 0 -1.53 95
02:00 139 J/kg -2.0 K 0 % 0 % 0 % 0 m²/s² 0 0 -1.73 95
03:00 144 J/kg -0.7 K 0 % 0 % 0 % 0 m²/s² 0 0 -0.52 81
04:00 447 J/kg -2.0 K 0 % 0 % 0 % 0 m²/s² 0 0 -1.88 95
05:00 265 J/kg -1.3 K 0 % 0 % 0 % 0 m²/s² 0 0 -0.34 95
06:00 346 J/kg -1.6 K 0 % 0 % 0 % 0 m²/s² 0 0 -0.76 95
07:00 596 J/kg -2.0 K 0 % 0 % 0 % 0 m²/s² 0 0 -1.61 95
08:00 824 J/kg -2.5 K 0 % 0 % 0 % 0 m²/s² 0 0 -1.69 95
09:00 845 J/kg -2.4 K 0 % 0 % 0 % 0 m²/s² 0 0 -1.74 95
10:00 442 J/kg -1.3 K 0 % 0 % 0 % 0 m²/s² 0 0 -0.91 95
11:00 88 J/kg -0.8 K 0 % 0 % 0 % 0 m²/s² 0 0 -0.44 95
12:00 603 J/kg -2.4 K 0 % 0 % 0 % 0 m²/s² 0 0 -1.41 95
13:00 651 J/kg -2.9 K 0 % 0 % 0 % 0 m²/s² 0 0 -1.37 95
14:00 1191 J/kg -4.0 K 0 % 0 % 0 % 0 m²/s² 0 0 -1.9 80
15:00 1081 J/kg -3.9 K 0 % 0 % 0 % 0 m²/s² 0 0 -1.74 95
16:00 845 J/kg -3.4 K 0 % 0 % 0 % 0 m²/s² 0 0 -1.3 95
17:00 731 J/kg -3.3 K 0 % 0 % 0 % 0 m²/s² 0 0 -1.32 95
18:00 592 J/kg -2.8 K 0 % 0 % 0 % 0 m²/s² 0 0 -1.21 95
19:00 584 J/kg -3.2 K 0 % 0 % 0 % 0 m²/s² 0 0 -1.73 95
20:00 432 J/kg -2.5 K 0 % 0 % 0 % 0 m²/s² 0 0 -0.79 95
21:00 324 J/kg -1.7 K 0 % 0 % 0 % 0 m²/s² 0 0 0.01 95
22:00 355 J/kg -2.0 K 0 % 0 % 0 % 0 m²/s² 0 0 -0.41 95
23:00 424 J/kg -2.3 K 0 % 0 % 0 % 0 m²/s² 0 0 -0.53 80
 05:03     21:55    Daglengte: 16:52 Woensdag 28 Jul
00:00 611 J/kg -3.1 K 0 % 0 % 0 % 0 m²/s² 0 0 -1.63 3
01:00 574 J/kg -2.7 K 0 % 0 % 0 % 0 m²/s² 0 0 -1.56 3
02:00 515 J/kg -2.6 K 0 % 0 % 0 % 0 m²/s² 0 0 -1.61 3
03:00 449 J/kg -2.2 K 0 % 0 % 0 % 0 m²/s² 0 0 -0.67 45
04:00 275 J/kg -1.9 K 0 % 0 % 0 % 0 m²/s² 0 0 -0.7 45
05:00 104 J/kg -1.3 K 0 % 0 % 0 % 0 m²/s² 0 0 0.05 45
06:00 15 J/kg -0.2 K 0 % 0 % 0 % 0 m²/s² 0 0 1.81 80
07:00 6 J/kg 0.7 K 0 % 0 % 0 % 0 m²/s² 0 0 3.13 80
08:00 3 J/kg 1.1 K 0 % 0 % 0 % 0 m²/s² 0 0 3.92 80
09:00 4 J/kg 1.4 K 0 % 0 % 0 % 0 m²/s² 0 0 4.22 80
10:00 16 J/kg 1.0 K 0 % 0 % 0 % 0 m²/s² 0 0 3.82 80
11:00 64 J/kg 0.4 K 0 % 0 % 0 % 0 m²/s² 0 0 3.55 80
12:00 187 J/kg -0.4 K 0 % 0 % 0 % 0 m²/s² 0 0 2.99 80
13:00 288 J/kg -1.1 K 0 % 0 % 0 % 0 m²/s² 0 0 2.77 80
14:00 358 J/kg -1.4 K 0 % 0 % 0 % 0 m²/s² 0 0 2.47 3
15:00 394 J/kg -1.8 K 0 % 0 % 0 % 0 m²/s² 0 0 1.86 3
16:00 389 J/kg -1.9 K 0 % 0 % 0 % 0 m²/s² 0 0 1.67 2
17:00 459 J/kg -2.3 K 0 % 0 % 0 % 0 m²/s² 0 0 1.27 2
18:00 521 J/kg -2.5 K 0 % 0 % 0 % 0 m²/s² 0 0 0.89 2
19:00 449 J/kg -2.2 K 0 % 0 % 0 % 0 m²/s² 0 0 0.92 2
20:00 393 J/kg -1.7 K 0 % 0 % 0 % 0 m²/s² 0 0 0.73 2
21:00 297 J/kg -1.5 K 0 % 0 % 0 % 0 m²/s² 0 0 0.18 3
22:00 259 J/kg -1.3 K 0 % 0 % 0 % 0 m²/s² 0 0 -0.07 3
23:00 145 J/kg -0.7 K 0 % 0 % 0 % 0 m²/s² 0 0 0.5 3
 05:05     21:52    Daglengte: 16:47 Donderdag 29 Jul
00:00 36 J/kg 0.0 K 0 % 0 % 0 % 0 m²/s² 0 0 1.2 3
01:00 0 J/kg 0.4 K 0 % 0 % 0 % 0 m²/s² 0 0 1.75 3
02:00 0 J/kg 0.9 K 0 % 0 % 0 % 0 m²/s² 0 0 2.04 45
03:00 0 J/kg 1.5 K 0 % 0 % 0 % 0 m²/s² 0 0 2.52 45
04:00 0 J/kg 1.0 K 0 % 0 % 0 % 0 m²/s² 0 0 1.93 45
05:00 0 J/kg 0.4 K 0 % 0 % 0 % 0 m²/s² 0 0 1.18 45
06:00 0 J/kg -0.3 K 0 % 0 % 0 % 0 m²/s² 0 0 0.72 3
07:00 68 J/kg -1.4 K 0 % 0 % 0 % 0 m²/s² 0 0 -0.47 80
08:00 450 J/kg -2.3 K 0 % 0 % 0 % 0 m²/s² 0 0 -2 80
09:00 653 J/kg -2.8 K 0 % 0 % 0 % 0 m²/s² 0 0 -2.38 80
10:00 565 J/kg -2.5 K 0 % 0 % 0 % 0 m²/s² 0 0 -2.17 80
11:00 544 J/kg -2.5 K 0 % 0 % 0 % 0 m²/s² 0 0 -2.32 80
12:00 1089 J/kg -4.9 K 0 % 0 % 0 % 0 m²/s² 0 0 -3.64 80
13:00 991 J/kg -4.3 K 0 % 0 % 0 % 0 m²/s² 0 0 -1.96 80
14:00 967 J/kg -4.0 K 0 % 0 % 0 % 0 m²/s² 0 0 -1.39 3
Temp Baro Wind Neerslag
  EWN Forecast EWN WRFDA DWD ICON FMI HIRLAM MET Norway GFS
 04:58     21:59    Daglengte: 17:01 Vandaag
17:00 23.7° 1013.3 hPa 4.3 m/s 0.0 mm 26.0° 1012.2 hPa 4.5 m/s 0.0 mm 22.0° 1014.0 hPa 3.6 m/s -1.1 mm 24.8° 1013.3 hPa 4.2 m/s 0.0 mm 24.0° 1013.5 hPa 3.9 m/s
20:00 21.1° 1012.8 hPa 3.6 m/s 1.6 mm 20.2° 1011.7 hPa 6.2 m/s 2.6 mm 19.3° 1013.0 hPa 1.8 m/s 2.8 mm 23.8° 1012.5 hPa 3.6 m/s 0.0 mm 18.1° 1013.1 hPa 2.4 m/s
23:00 19.4° 1012.9 hPa 2.2 m/s 4.1 mm 18.7° 1011.6 hPa 2.4 m/s 7.8 mm 19.0° 1013.2 hPa 1.6 m/s 11.5 mm 19.6° 1012.3 hPa 2.0 m/s 0.0 mm 17.8° 1013.0 hPa 2.2 m/s
 05:01     21:57    Daglengte: 16:56 Morgen
02:00 19.2° 1012.1 hPa 2.7 m/s 5.1 mm 18.2° 1011.1 hPa 3.1 m/s 12.0 mm 18.9° 1012.2 hPa 1.6 m/s 9.9 mm 19.4° 1011.7 hPa 2.6 m/s 0.0 mm 17.3° 1012.8 hPa 1.9 m/s
05:00 19.0° 1011.0 hPa 2.4 m/s 5.3 mm 18.1° 1009.4 hPa 3.9 m/s 29.9 mm 18.7° 1010.9 hPa 2.0 m/s 5.5 mm 19.3° 1011.1 hPa 1.7 m/s 0.0 mm 17.5° 1011.4 hPa 2.8 m/s
08:00 19.7° 1010.6 hPa 3.6 m/s 3.4 mm 19.8° 1009.5 hPa 3.7 m/s 30.6 mm 19.2° 1010.1 hPa 3.8 m/s 7.4 mm 19.9° 1010.7 hPa 3.1 m/s 0.0 mm 18.5° 1011.5 hPa 3.7 m/s
11:00 19.1° 1010.0 hPa 3.6 m/s 13.3 mm 18.3° 1008.5 hPa 2.9 m/s 32.5 mm 19.1° 1010.1 hPa 4.1 m/s 11.8 mm 20.6° 1009.8 hPa 3.8 m/s 0.0 mm 18.0° 1010.9 hPa 3.4 m/s
14:00 20.0° 1008.9 hPa 4.3 m/s 12.7 mm 21.0° 1007.1 hPa 2.9 m/s 41.1 mm 19.8° 1009.4 hPa 2.9 m/s 4.9 mm 21.1° 1008.5 hPa 5.0 m/s 0.0 mm 18.6° 1009.5 hPa 4.0 m/s
17:00 20.0° 1007.8 hPa 2.8 m/s 13.7 mm 22.0° 1006.1 hPa 2.8 m/s 44.9 mm 19.6° 1008.3 hPa 2.4 m/s 5.5 mm 21.2° 1007.0 hPa 3.4 m/s 0.0 mm 18.1° 1007.9 hPa 2.3 m/s
20:00 19.5° 1006.7 hPa 2.7 m/s 12.9 mm 21.2° 1005.5 hPa 2.6 m/s 44.9 mm 19.2° 1007.5 hPa 1.0 m/s 3.7 mm 20.0° 1006.5 hPa 2.8 m/s 0.0 mm 18.2° 1006.9 hPa 1.2 m/s
23:00 18.1° 1006.9 hPa 1.1 m/s 7.4 mm 17.1° 1005.6 hPa 1.7 m/s 44.9 mm 18.2° 1007.1 hPa 0.7 m/s 2.8 mm 17.8° 1006.8 hPa 0.9 m/s 0.0 mm 17.3° 1007.1 hPa 1.4 m/s
 05:03     21:55    Daglengte: 16:52 Woensdag 28 Jul
02:00 17.7° 1006.2 hPa 0.9 m/s 3.1 mm 18.2° 1005.2 hPa 0.8 m/s 45.5 mm 17.5° 1006.1 hPa 0.8 m/s 0.3 mm 17.3° 1006.4 hPa 0.8 m/s 0.0 mm 16.0° 1006.5 hPa 1.7 m/s
05:00 17.1° 1004.9 hPa 1.1 m/s 0.0 mm 17.0° 1004.4 hPa 1.0 m/s 46.9 mm 17.0° 1004.9 hPa 0.8 m/s 0.3 mm 17.0° 1005.4 hPa 0.9 m/s 0.0 mm 15.7° 1005.8 hPa 1.0 m/s
08:00 17.9° 1004.6 hPa 1.0 m/s 11.2 mm 16.5° 1004.1 hPa 1.2 m/s 47.5 mm 17.5° 1004.2 hPa 0.7 m/s 1.4 mm 18.8° 1005.3 hPa 0.2 m/s 0.0 mm 17.2° 1005.5 hPa 0.6 m/s
11:00 18.4° 1004.0 hPa 2.2 m/s 10.6 mm 18.3° 1003.2 hPa 2.1 m/s 47.7 mm 18.7° 1004.0 hPa 1.9 m/s 1.8 mm 18.4° 1005.1 hPa 0.8 m/s
14:00 19.7° 1003.4 hPa 4.1 m/s 12.5 mm 22.6° 1001.9 hPa 4.3 m/s 47.7 mm 19.3° 1003.3 hPa 3.4 m/s 1.3 mm 19.4° 1004.8 hPa 3.5 m/s
17:00 20.4° 1002.5 hPa 4.2 m/s 14.6 mm 22.6° 1000.7 hPa 5.9 m/s 47.7 mm 20.5° 1002.4 hPa 4.1 m/s 0.2 mm 20.6° 1003.9 hPa 3.9 m/s
20:00 18.9° 1001.4 hPa 3.2 m/s 17.4 mm 20.9° 999.4 hPa 5.0 m/s 47.7 mm 18.8° 1001.1 hPa 3.1 m/s 0.0 mm 18.9° 1002.9 hPa 3.0 m/s
23:00 17.1° 1000.6 hPa 1.8 m/s 5.4 mm 17.3° 999.5 hPa 4.7 m/s 47.7 mm 16.5° 1000.1 hPa 1.0 m/s 0.0 mm 15.7° 1002.6 hPa 2.0 m/s
 05:05     21:52    Daglengte: 16:47 Donderdag 29 Jul
02:00 16.2° 999.4 hPa 2.0 m/s 16.2 mm 14.9° 999.0 hPa 3.8 m/s 47.7 mm 16.3° 998.1 hPa 0.6 m/s 0.0 mm 14.9° 1001.2 hPa 1.2 m/s
05:00 15.9° 998.2 hPa 2.1 m/s 17.7 mm 12.6° 998.2 hPa 2.4 m/s 47.7 mm 16.2° 996.2 hPa 0.8 m/s 0.1 mm 15.0° 999.4 hPa 1.4 m/s
08:00 16.7° 997.1 hPa 1.7 m/s 12.8 mm 15.8° 997.2 hPa 1.6 m/s 48.1 mm 16.5° 994.6 hPa 0.9 m/s 0.6 mm 16.0° 997.8 hPa 2.5 m/s
11:00 17.3° 994.3 hPa 2.5 m/s 20.2 mm 15.9° 997.1 hPa 3.5 m/s 54.8 mm 17.6° 993.6 hPa 2.2 m/s 2.8 mm 17.1° 996.8 hPa 3.6 m/s
14:00 18.6° 993.1 hPa 3.5 m/s 22.1 mm 17.4° 995.5 hPa 5.4 m/s 64.5 mm 18.9° 992.4 hPa 3.0 m/s 1.0 mm 16.4° 995.9 hPa 4.0 m/s
17:00 15.5° 994.9 hPa 1.3 m/s 48.4 mm 15.5° 994.9 hPa 1.3 m/s 48.4 mm
20:00 14.6° 993.8 hPa 1.9 m/s 49.2 mm 14.6° 993.8 hPa 1.9 m/s 49.2 mm
23:00 12.8° 992.7 hPa 1.0 m/s 49.2 mm 12.8° 992.7 hPa 1.0 m/s 49.2 mm
 05:07     21:50    Daglengte: 16:43 Vrijdag 30 Jul
02:00 11.8° 991.9 hPa 1.7 m/s 49.2 mm 11.8° 991.9 hPa 1.7 m/s 49.2 mm
05:00 11.5° 991.3 hPa 1.8 m/s 49.2 mm 11.5° 991.3 hPa 1.8 m/s 49.2 mm
08:00 14.6° 991.6 hPa 1.6 m/s 49.2 mm 14.6° 991.6 hPa 1.6 m/s 49.2 mm
11:00 21.8° 992.4 hPa 1.3 m/s 49.2 mm 21.8° 992.4 hPa 1.3 m/s 49.2 mm
14:00 21.2° 993.1 hPa 1.2 m/s 49.2 mm 21.2° 993.1 hPa 1.2 m/s 49.2 mm
17:00 22.0° 994.5 hPa 1.8 m/s 49.3 mm 22.0° 994.5 hPa 1.8 m/s 49.3 mm
20:00 20.1° 994.7 hPa 2.0 m/s 49.3 mm 20.1° 994.7 hPa 2.0 m/s 49.3 mm
23:00 15.5° 995.7 hPa 0.8 m/s 49.3 mm 15.5° 995.7 hPa 0.8 m/s 49.3 mm
 05:09     21:48    Daglengte: 16:39 Zaterdag 31 Jul
02:00 14.8° 996.2 hPa 1.5 m/s 49.3 mm 14.8° 996.2 hPa 1.5 m/s 49.3 mm
05:00 14.0° 996.4 hPa 2.4 m/s 49.3 mm 14.0° 996.4 hPa 2.4 m/s 49.3 mm
08:00 16.4° 996.6 hPa 3.7 m/s 49.3 mm 16.4° 996.6 hPa 3.7 m/s 49.3 mm
11:00 19.2° 997.1 hPa 3.6 m/s 49.3 mm 19.2° 997.1 hPa 3.6 m/s 49.3 mm
14:00 21.6° 996.8 hPa 0.8 m/s 49.3 mm 21.6° 996.8 hPa 0.8 m/s 49.3 mm
17:00 18.9° 996.9 hPa 2.4 m/s 49.4 mm 18.9° 996.9 hPa 2.4 m/s 49.3 mm
20:00 17.5° 996.5 hPa 1.9 m/s 50.0 mm 17.5° 996.5 hPa 1.9 m/s 50.0 mm
23:00 14.3° 996.2 hPa 0.8 m/s 50.3 mm 14.3° 996.2 hPa 0.8 m/s 50.3 mm
 05:11     21:45    Daglengte: 16:34 Zondag 01 Aug
02:00 13.3° 995.4 hPa 0.9 m/s 50.3 mm 13.3° 995.4 hPa 0.9 m/s 50.3 mm
05:00 12.6° 995.1 hPa 1.5 m/s 50.5 mm 12.6° 995.1 hPa 1.5 m/s 50.5 mm
08:00 14.9° 994.9 hPa 2.2 m/s 50.8 mm 14.9° 994.9 hPa 2.2 m/s 50.8 mm
11:00 17.4° 995.1 hPa 3.2 m/s 51.6 mm 17.4° 995.1 hPa 3.2 m/s 51.6 mm
14:00 19.4° 994.9 hPa 3.1 m/s 52.1 mm 19.4° 994.9 hPa 3.1 m/s 52.1 mm
17:00 18.3° 995.2 hPa 2.3 m/s 52.7 mm 18.3° 995.2 hPa 2.3 m/s 52.7 mm
20:00 16.2° 995.7 hPa 1.5 m/s 53.5 mm 16.2° 995.7 hPa 1.5 m/s 53.5 mm
23:00 13.5° 996.2 hPa 2.0 m/s 55.9 mm 13.5° 996.2 hPa 2.0 m/s 55.9 mm
 05:14     21:43    Daglengte: 16:29 Maandag 02 Aug
02:00 13.1° 996.3 hPa 1.4 m/s 56.0 mm 13.1° 996.3 hPa 1.4 m/s 56.0 mm
05:00 12.6° 996.9 hPa 1.4 m/s 56.6 mm 12.6° 996.9 hPa 1.4 m/s 56.6 mm
08:00 13.7° 997.5 hPa 1.3 m/s 56.8 mm 13.7° 997.5 hPa 1.3 m/s 56.8 mm
11:00 16.2° 998.3 hPa 1.0 m/s 58.2 mm 16.2° 998.3 hPa 1.0 m/s 58.2 mm
14:00 17.5° 998.6 hPa 2.2 m/s 59.4 mm 17.5° 998.6 hPa 2.2 m/s 59.4 mm
20:00 16.1° 998.1 hPa 1.2 m/s 61.3 mm 16.1° 998.1 hPa 1.2 m/s 61.3 mm
 05:16     21:41    Daglengte: 16:25 Dinsdag 03 Aug
02:00 9.4° 1000.9 hPa 3.7 m/s 61.4 mm 9.4° 1000.9 hPa 3.7 m/s 61.4 mm
08:00 12.1° 1002.4 hPa 2.1 m/s 61.4 mm 12.1° 1002.4 hPa 2.1 m/s 61.4 mm
14:00 20.3° 1002.1 hPa 3.1 m/s 61.4 mm 20.3° 1002.1 hPa 3.1 m/s 61.4 mm
20:00 17.8° 1002.8 hPa 4.6 m/s 61.4 mm 17.8° 1002.8 hPa 4.6 m/s 61.4 mm
 05:18     21:38    Daglengte: 16:20 Woensdag 04 Aug
02:00 9.9° 1004.8 hPa 2.2 m/s 61.4 mm 9.9° 1004.8 hPa 2.2 m/s 61.4 mm
08:00 12.7° 1004.0 hPa 1.1 m/s 61.4 mm 12.7° 1004.0 hPa 1.1 m/s 61.4 mm
14:00 12.2° 1000.2 hPa 2.8 m/s 65.4 mm 12.2° 1000.2 hPa 2.8 m/s 65.4 mm
20:00 12.2° 998.0 hPa 1.1 m/s 69.0 mm 12.2° 998.0 hPa 1.1 m/s 69.0 mm
 05:20     21:36    Daglengte: 16:16 Donderdag 05 Aug
02:00 11.4° 996.1 hPa 1.3 m/s 69.2 mm 11.4° 996.1 hPa 1.3 m/s 69.2 mm
08:00 13.1° 993.8 hPa 1.8 m/s 69.2 mm 13.1° 993.8 hPa 1.8 m/s 69.2 mm
14:00 18.9° 1006.6 hPa 1.9 m/s 1.3 mm
20:00 17.2° 1005.9 hPa 1.7 m/s 1.4 mm
 05:23     21:33    Daglengte: 16:10 Vrijdag 06 Aug
02:00 13.6° 1006.5 hPa 0.7 m/s 0.6 mm
08:00 14.7° 1005.9 hPa 1.8 m/s 1.0 mm
14:00 18.7° 1005.2 hPa 1.6 m/s 2.2 mm
20:00 17.7° 1003.8 hPa 1.2 m/s 1.9 mm
 05:25     21:31    Daglengte: 16:06 Zaterdag 07 Aug
02:00 14.2° 1004.0 hPa 1.2 m/s 2.2 mm
08:00 15.1° 1004.0 hPa 1.4 m/s 1.4 mm
14:00 19.0° 1003.8 hPa 1.5 m/s 0.7 mm
20:00 17.8° 1003.1 hPa 0.5 m/s 1.3 mm
 05:27     21:28    Daglengte: 16:01 Zondag 08 Aug
02:00 14.3° 1003.7 hPa 1.2 m/s 1.2 mm
08:00 15.1° 1003.6 hPa 2.0 m/s 2.0 mm
14:00 19.1° 1003.9 hPa 1.2 m/s 2.1 mm
20:00 17.7° 1003.7 hPa 0.6 m/s 1.6 mm
 05:29     21:25    Daglengte: 15:56 Maandag 09 Aug
02:00 14.3° 1004.9 hPa 1.0 m/s 1.2 mm
08:00 14.9° 1005.4 hPa 1.1 m/s 0.8 mm
14:00 19.4° 1006.1 hPa 1.0 m/s 0.8 mm